Tracking 35331 objects as of 14-Sep-2026
HD Live streaming from Space Station
objects crossing your sky now

SCOUT B DEB

Track SCOUT B DEB now!
10-day predictions


NORAD ID: 28803
Int'l Code: 1965-063N
Launch date: August 10, 1965
Source: United States (US)
Launch site: WALLOPS ISLAND (WLPIS)

Note: This is SATELLITE DEBRIS
Your satellite tracking list
Your tracking list is empty




NASA's NSSDC Master Catalog

Two Line Element Set (TLE):
1 28803U 65063N   21306.60300038  .00000369  00000-0  27087-2 0  9997
2 28803  69.2279  26.0870 0740804 316.9743 102.1817 11.87871480724780
Source of the keplerian elements: AFSPC